When you browse on this site, cookies collect data to enhance your experience and personalize the content and advertising you see.
Visit our Privacy Policy to learn more. By continuing to use the site, you agree to this use of cookies and data.
  • In Spain
  • List of Countries
  • For 7 days
  • Water Temperature
  • Satellite Maps
  • Weather Map
  • Weather Widgets
  • user-avatar
    Login

    Hourly Weather Kiustendil

    Today, 20 November, Tuesday

    Time Temperature Precipitation Wind Pressure Humidity
    00:00 -1°C° 0 mm 1 mps 622 mmHg 70%
    01:00 -3°C° 0 mm 2 mps 622 mmHg 76%
    02:00 -3°C° 0.1 mm 2 mps 622 mmHg 78%
    03:00 -3°C° 0.1 mm 2 mps 622 mmHg 81%
    04:00 -3°C° 0.1 mm 2 mps 622 mmHg 83%
    05:00 -2°C° 0.3 mm 2 mps 622 mmHg 85%
    06:00 -2°C° 0.3 mm 2 mps 622 mmHg 87%
    07:00 -2°C° 0.3 mm 2 mps 622 mmHg 89%
    08:00 -1°C° 0.1 mm 2 mps 623 mmHg 87%
    09:00 +1°C° 0.1 mm 3 mps 623 mmHg 85%
    10:00 +2°C° 0.1 mm 3 mps 624 mmHg 83%
    11:00 +2°C° 0.2 mm 3 mps 623 mmHg 83%
    12:00 +3°C° 0.2 mm 4 mps 623 mmHg 82%
    13:00 +4°C° 0.2 mm 4 mps 623 mmHg 81%
    14:00 +3°C° 0.3 mm 3 mps 623 mmHg 84%
    15:00 +2°C° 0.3 mm 3 mps 623 mmHg 88%
    16:00 +3°C° 0.3 mm 2 mps 622 mmHg 91%
    17:00 +2°C° 0.1 mm 2 mps 622 mmHg 91%
    18:00 +2°C° 0.1 mm 2 mps 622 mmHg 92%
    19:00 +2°C° 0.1 mm 2 mps 622 mmHg 93%
    20:00 +2°C° 0 mm 2 mps 621 mmHg 93%
    21:00 +2°C° 0 mm 2 mps 621 mmHg 93%
    22:00 +2°C° 0 mm 2 mps 621 mmHg 93%
    23:00 +2°C° 0 mm 2 mps 621 mmHg 93%

    Tomorrow, 21 November, Wednesday

    Time Temperature Precipitation Wind Pressure Humidity
    00:00 +2°C° 0 mm 2 mps 621 mmHg 93%
    01:00 +2°C° 0 mm 2 mps 621 mmHg 93%
    02:00 +3°C° 0.9 mm 1 mps 621 mmHg 93%
    03:00 +3°C° 0.9 mm 1 mps 620 mmHg 94%
    04:00 +3°C° 0.9 mm 1 mps 620 mmHg 94%
    05:00 +3°C° 1.3 mm 1 mps 620 mmHg 93%
    06:00 +3°C° 1.3 mm 1 mps 620 mmHg 93%
    07:00 +3°C° 1.3 mm 1 mps 620 mmHg 93%
    08:00 +3°C° 1.4 mm 1 mps 620 mmHg 92%
    09:00 +3°C° 1.4 mm 1 mps 620 mmHg 92%
    10:00 +3°C° 1.4 mm 1 mps 621 mmHg 91%
    11:00 +2°C° 0.4 mm 2 mps 621 mmHg 90%
    12:00 +2°C° 0.4 mm 2 mps 621 mmHg 88%
    13:00 +2°C° 0.4 mm 2 mps 621 mmHg 86%
    14:00 +2°C° 0.2 mm 2 mps 621 mmHg 87%
    15:00 +1°C° 0.2 mm 2 mps 621 mmHg 87%
    16:00 +1°C° 0.2 mm 2 mps 621 mmHg 88%
    17:00 -1°C° 0.1 mm 2 mps 622 mmHg 89%
    18:00 -1°C° 0.1 mm 2 mps 622 mmHg 90%
    19:00 -2°C° 0.1 mm 2 mps 622 mmHg 90%
    20:00 -2°C° 0 mm 2 mps 622 mmHg 90%
    21:00 -3°C° 0 mm 2 mps 622 mmHg 90%
    22:00 -3°C° 0 mm 2 mps 623 mmHg 90%
    23:00 -1°C° 0 mm 1 mps 623 mmHg 91%

    Day after tomorrow, 22 November, Thursday

    Time Temperature Precipitation Wind Pressure Humidity
    00:00 -2°C° 0 mm 1 mps 623 mmHg 91%
    01:00 -2°C° 0 mm 1 mps 623 mmHg 91%
    02:00 -2°C° 0 mm 1 mps 623 mmHg 90%
    03:00 -2°C° 0 mm 1 mps 623 mmHg 90%
    04:00 -3°C° 0 mm 1 mps 623 mmHg 90%
    05:00 -3°C° 0 mm 1 mps 623 mmHg 89%
    06:00 -3°C° 0 mm 1 mps 623 mmHg 88%
    07:00 -3°C° 0 mm 1 mps 623 mmHg 88%
    08:00 -1°C° 0 mm 1 mps 624 mmHg 81%
    09:00 +1°C° 0 mm 1 mps 625 mmHg 74%
    10:00 +3°C° 0 mm 1 mps 626 mmHg 67%
    11:00 +3°C° 0 mm 1 mps 626 mmHg 65%
    12:00 +4°C° 0 mm 1 mps 626 mmHg 63%
    13:00 +5°C° 0 mm 1 mps 626 mmHg 61%
    14:00 +4°C° 0 mm 1 mps 626 mmHg 66%
    15:00 +3°C° 0 mm 1 mps 626 mmHg 71%
    16:00 +2°C° 0 mm 1 mps 625 mmHg 75%
    17:00 +1°C° 0 mm 1 mps 625 mmHg 78%
    18:00 0°C° 0 mm 1 mps 626 mmHg 81%
    19:00 0°C° 0 mm 1 mps 626 mmHg 84%
    20:00 0°C° 0 mm 1 mps 626 mmHg 84%
    21:00 -1°C° 0 mm 1 mps 626 mmHg 85%
    22:00 -1°C° 0 mm 1 mps 626 mmHg 86%
    23:00 -1°C° 0 mm 1 mps 626 mmHg 87%

    23 November, Friday

    Time Temperature Precipitation Wind Pressure Humidity
    00:00 -1°C° 0 mm 1 mps 626 mmHg 87%
    01:00 -2°C° 0 mm 1 mps 626 mmHg 87%
    02:00 -2°C° 0 mm 1 mps 626 mmHg 88%
    03:00 -2°C° 0 mm 1 mps 626 mmHg 88%
    04:00 -2°C° 0 mm 1 mps 626 mmHg 88%
    05:00 -2°C° 0 mm 1 mps 626 mmHg 88%
    06:00 -2°C° 0 mm 1 mps 627 mmHg 87%
    07:00 -2°C° 0 mm 1 mps 627 mmHg 87%
    08:00 0°C° 0 mm 1 mps 628 mmHg 80%
    09:00 +1°C° 0 mm 1 mps 629 mmHg 73%
    10:00 +3°C° 0 mm 1 mps 629 mmHg 66%
    11:00 +4°C° 0 mm 1 mps 629 mmHg 64%
    12:00 +4°C° 0 mm 1 mps 629 mmHg 62%
    13:00 +5°C° 0 mm 1 mps 629 mmHg 60%
    14:00 +4°C° 0 mm 1 mps 629 mmHg 65%
    15:00 +3°C° 0 mm 1 mps 629 mmHg 70%
    16:00 +2°C° 0 mm 1 mps 628 mmHg 74%
    17:00 +1°C° 0 mm 1 mps 628 mmHg 78%
    18:00 +1°C° 0 mm 1 mps 628 mmHg 81%
    19:00 0°C° 0 mm 1 mps 628 mmHg 84%
    20:00 -1°C° 0 mm 1 mps 628 mmHg 85%
    21:00 -1°C° 0 mm 1 mps 628 mmHg 86%
    22:00 -1°C° 0 mm 1 mps 628 mmHg 87%
    23:00 -2°C° 0 mm 1 mps 628 mmHg 87%

    24 November, Saturday

    Time Temperature Precipitation Wind Pressure Humidity
    00:00 -2°C° 0 mm 1 mps 628 mmHg 88%
    01:00 -2°C° 0 mm 1 mps 628 mmHg 88%
    02:00 -3°C° 0 mm 0 mps 627 mmHg 89%
    03:00 -3°C° 0 mm 0 mps 627 mmHg 89%
    04:00 -3°C° 0 mm 0 mps 627 mmHg 89%
    05:00 -2°C° 0 mm 1 mps 627 mmHg 89%
    06:00 -2°C° 0 mm 1 mps 627 mmHg 89%
    07:00 -2°C° 0 mm 1 mps 627 mmHg 89%
    08:00 0°C° 0 mm 1 mps 628 mmHg 81%
    09:00 +1°C° 0 mm 1 mps 628 mmHg 74%
    10:00 +2°C° 0 mm 2 mps 629 mmHg 67%
    11:00 +3°C° 0 mm 2 mps 628 mmHg 63%
    12:00 +4°C° 0 mm 2 mps 628 mmHg 60%
    13:00 +5°C° 0 mm 2 mps 628 mmHg 56%
    14:00 +3°C° 0 mm 2 mps 627 mmHg 62%
    15:00 +3°C° 0 mm 1 mps 627 mmHg 67%
    16:00 +2°C° 0 mm 1 mps 626 mmHg 73%
    17:00 +2°C° 0 mm 1 mps 626 mmHg 75%
    18:00 +1°C° 0 mm 1 mps 626 mmHg 78%
    19:00 +1°C° 0 mm 1 mps 626 mmHg 80%
    20:00 0°C° 0 mm 1 mps 626 mmHg 81%
    21:00 0°C° 0 mm 1 mps 626 mmHg 83%
    22:00 0°C° 0 mm 1 mps 626 mmHg 84%
    23:00 -1°C° 0 mm 1 mps 625 mmHg 85%

    25 November, Sunday

    Time Temperature Precipitation Wind Pressure Humidity
    00:00 -1°C° 0 mm 1 mps 625 mmHg 86%
    01:00 -1°C° 0 mm 1 mps 625 mmHg 87%
    02:00 -1°C° 0 mm 1 mps 625 mmHg 87%
    03:00 -1°C° 0 mm 1 mps 624 mmHg 87%
    04:00 -1°C° 0 mm 1 mps 624 mmHg 87%
    05:00 -1°C° 0 mm 1 mps 624 mmHg 87%
    06:00 -1°C° 0 mm 1 mps 624 mmHg 87%
    07:00 -1°C° 0 mm 1 mps 624 mmHg 87%
    08:00 +1°C° 0 mm 1 mps 624 mmHg 79%
    09:00 +2°C° 0 mm 2 mps 625 mmHg 72%
    10:00 +4°C° 0 mm 2 mps 625 mmHg 64%
    11:00 +4°C° 0 mm 2 mps 625 mmHg 61%
    12:00 +5°C° 0 mm 2 mps 625 mmHg 58%
    13:00 +6°C° 0 mm 2 mps 625 mmHg 54%
    14:00 +5°C° 0 mm 2 mps 624 mmHg 60%
    15:00 +4°C° 0 mm 2 mps 623 mmHg 66%
    16:00 +4°C° 0 mm 1 mps 623 mmHg 73%
    17:00 +3°C° 0 mm 1 mps 623 mmHg 76%
    18:00 +2°C° 0 mm 2 mps 622 mmHg 80%
    19:00 +1°C° 0 mm 2 mps 622 mmHg 83%
    20:00 +1°C° 0 mm 2 mps 622 mmHg 84%
    21:00 +1°C° 0 mm 2 mps 622 mmHg 85%
    22:00 -1°C° 0 mm 2 mps 622 mmHg 87%
    23:00 -1°C° 0.1 mm 2 mps 621 mmHg 87%
    Show more